User: anonymous   Login
Location: Unspecified
(0.0000°N, 0.0000°E)
Time: 18:54:41
(UTC+00:00)
Language:

Tansei-3 - Orbit

View from above orbital plane
View from above orbital plane
View from above satellite
View from above satellite

Ground track
Ground track

The orbit data is extracted from the following two-line orbital elements,

1  9841U 77012A   17145.94779703 +.00000019 +00000-0 +15734-3 0  9996
2  9841 065.7623 056.3356 1723120 118.6499 259.8469 10.73809344578377
Epoch (UTC): 25 May 2017 22:44:49
Eccentricity: 0.1723120
inclination: 65.7623°
perigee height: 805 km
apogee height: 3796 km
right ascension of ascending node: 56.3356°
argument of perigee: 118.6499°
revolutions per day: 10.73809344
mean anomaly at epoch: 259.8469°
orbit number at epoch: 57837

The dashed part of the orbit path shows where the satellite is in the earth's shadow,  

DLR